EDT,Max TemperatureF,Mean TemperatureF,Min TemperatureF,Max Dew PointF,MeanDew PointF,Min DewpointF,Max Humidity, Mean Humidity, Min Humidity, Max Sea Level PressureIn, Mean Sea Level PressureIn, Min Sea Level PressureIn, Max VisibilityMiles, Mean VisibilityMiles, Min VisibilityMiles, Max Wind SpeedMPH, Mean Wind SpeedMPH, Max Gust SpeedMPH,PrecipitationIn, CloudCover, Events, WindDirDegrees
2013-10-1,78,61,44,57,51,44,93,72,50,30.04,29.97,29.91,10,10,10,17,2,21,0.00,1,Fog,287
2013-10-2,77,64,51,61,55,50,100,75,50,30.03,29.95,29.92,10,9,2,18,6,25,0.00,4,Fog,247
2013-10-3,72,59,46,54,49,44,93,69,44,30.14,30.08,30.04,10,10,10,10,2,13,0.00,5,Fog,81
2013-10-4,63,60,56,57,55,54,93,86,78,30.10,30.07,30.05,10,8,1,9,3,12,0.70,8,Rain,349
2013-10-5,63,60,56,55,53,50,93,80,67,30.13,30.10,30.07,10,10,7,8,4,10,0.02,8,Rain,348
2013-10-6,63,58,52,57,52,48,93,83,72,30.13,30.09,30.03,10,6,1,16,6,24,0.18,8,Rain,97
2013-10-7,75,65,54,66,59,45,90,78,66,30.01,29.85,29.65,10,8,1,30,9,41,0.94,7,Rain-Thunderstorm,180
2013-10-8,65,55,44,45,42,39,92,66,40,30.39,30.23,29.99,10,10,10,14,5,18,0.00,2,,296
2013-10-9,65,52,38,45,41,37,100,70,40,30.51,30.42,30.36,10,6,0,8,1,12,0.00,5,Fog,337
2013-10-10,59,49,39,48,43,38,100,79,57,30.36,30.29,30.19,10,6,0,13,2,14,0.00,7,Fog,348
2013-10-11,70,58,45,50,47,43,93,67,40,30.18,30.15,30.10,10,10,10,9,2,12,0.00,6,Fog,351
2013-10-12,74,57,39,51,46,40,96,70,44,30.36,30.26,30.17,10,10,10,15,4,21,0.00,2,Fog,127
2013-10-13,69,61,52,48,47,43,83,63,42,30.43,30.37,30.32,10,10,10,12,5,15,0.00,4,,158
2013-10-14,67,57,47,53,49,45,86,71,56,30.37,30.31,30.25,10,10,9,10,3,14,0.00,6,,189
2013-10-15,71,64,56,57,54,47,86,73,60,30.27,30.21,30.12,10,10,10,13,3,18,T,7,Rain,53
2013-10-16,63,59,54,54,48,39,78,65,51,30.12,30.00,29.86,10,10,10,16,8,22,T,7,Rain,168
2013-10-17,70,64,57,56,51,46,86,65,44,29.90,29.81,29.62,10,10,7,12,4,17,0.10,6,Rain,271
2013-10-18,65,53,41,61,46,35,93,65,36,29.96,29.78,29.58,10,10,5,15,7,28,0.03,4,Rain,274
2013-10-19,64,52,40,46,40,37,92,66,39,29.96,29.86,29.71,10,10,10,21,8,26,0.02,6,Rain,173
2013-10-20,60,52,43,48,37,32,83,60,36,30.04,29.89,29.70,10,10,8,26,5,31,T,4,Rain,279
2013-10-21,66,53,39,40,37,34,86,60,34,30.11,30.02,29.92,10,10,10,17,8,22,0.00,5,,169
2013-10-22,55,45,35,47,39,32,82,66,50,29.91,29.82,29.78,10,10,10,20,8,25,0.01,6,Rain,235
2013-10-23,44,40,35,36,33,31,92,86,79,29.83,29.74,29.64,10,10,10,15,6,21,0.46,6,,250
2013-10-24,51,41,31,35,30,25,89,64,38,29.95,29.84,29.75,10,10,9,22,9,29,T,5,Rain,267
2013-10-25,49,42,34,35,31,27,85,66,46,30.18,30.10,29.97,10,10,10,22,8,30,T,6,Rain,288
2013-10-26,52,42,31,32,30,25,89,62,35,30.17,30.00,29.84,10,10,10,20,9,25,T,6,Rain,176
2013-10-27,52,42,32,33,32,29,89,66,42,30.10,29.94,29.82,10,10,10,24,7,29,T,6,Rain,274
2013-10-28,56,43,30,35,29,23,92,65,38,30.39,30.20,30.09,10,10,10,24,7,29,0.00,3,,277
2013-10-29,47,38,28,25,22,17,75,53,31,30.49,30.43,30.36,10,10,10,12,3,14,0.00,3,,347
2013-10-30,53,43,33,37,32,24,92,73,54,30.35,30.28,30.21,10,10,10,7,1,9,T,6,Rain,13
2013-10-31,61,47,32,57,45,30,100,92,83,30.24,30.01,29.67,10,4,0,23,9,32,0.29,7,Fog-Rain,173